LVTKK SAVC-SABE

Flight info

Callsign LVTKK
Flight time N/A
Altitude 39000
Route GATUD1G GATUD UP664 TRE UT693 BCA UW22 VALOS VALOS9Q
Aircraft C56X/M-SDFGLM3ORVWY/SB1

Departure

Time 2026-05-09 17:39
Airport General Enrique Mosconi International Airport (SAVC)

Arrival

Time N/A
Airport Aeroparque Jorge Newbery (SABE)
Time Latitude Longitude Altitude Speed Heading
2026-05-09 17:19 -45.78956 -67.46980 192 ft 0 kts 229°
2026-05-09 17:29 -45.78953 -67.46975 200 ft 2 kts 229°
2026-05-09 17:29 -45.78940 -67.46956 196 ft 3 kts 202°
2026-05-09 17:30 -45.78936 -67.46946 202 ft 3 kts 125°
2026-05-09 17:30 -45.78937 -67.46921 195 ft 3 kts 89°
2026-05-09 17:30 -45.78937 -67.46894 192 ft 2 kts 92°
2026-05-09 17:30 -45.78936 -67.46907 192 ft 3 kts 102°
2026-05-09 17:31 -45.78929 -67.46933 200 ft 3 kts 126°
2026-05-09 17:31 -45.78918 -67.46956 202 ft 3 kts 108°
2026-05-09 17:32 -45.78916 -67.46974 192 ft 0 kts 87°
2026-05-09 17:34 -45.78916 -67.46972 192 ft 1 kts 87°
2026-05-09 17:35 -45.78728 -67.46626 195 ft 21 kts 78°
2026-05-09 17:35 -45.78695 -67.46376 193 ft 30 kts 80°
2026-05-09 17:36 -45.78660 -67.46066 196 ft 31 kts 81°
2026-05-09 17:36 -45.78619 -67.45768 196 ft 30 kts 78°
2026-05-09 17:36 -45.78579 -67.45492 204 ft 28 kts 78°
2026-05-09 17:36 -45.78551 -67.45258 193 ft 27 kts 80°
2026-05-09 17:37 -45.78519 -67.44998 199 ft 26 kts 77°
2026-05-09 17:37 -45.78435 -67.44850 197 ft 16 kts 20°
2026-05-09 17:37 -45.78329 -67.44815 193 ft 15 kts 28°
2026-05-09 17:37 -45.78295 -67.44808 191 ft 4 kts 289°
2026-05-09 17:38 -45.78296 -67.44824 191 ft 0 kts 259°
2026-05-09 17:38 -45.78316 -67.44958 193 ft 56 kts 258°
2026-05-09 17:38 -45.78461 -67.46026 210 ft 144 kts 258°
2026-05-09 17:39 -45.78959 -67.49416 853 ft 214 kts 249°
2026-05-09 17:39 -45.79709 -67.51433 1345 ft 245 kts 240°
2026-05-09 17:39 -45.80564 -67.53605 2158 ft 247 kts 243°
2026-05-09 17:39 -45.81261 -67.55699 3194 ft 216 kts 245°
2026-05-09 17:40 -45.81845 -67.57543 4219 ft 190 kts 243°
2026-05-09 17:40 -45.82378 -67.59152 5144 ft 168 kts 241°
2026-05-09 17:40 -45.82797 -67.60787 5827 ft 185 kts 251°
2026-05-09 17:40 -45.82985 -67.62702 6564 ft 205 kts 263°
2026-05-09 17:41 -45.82854 -67.64849 7278 ft 229 kts 276°
2026-05-09 17:41 -45.82310 -67.67078 8018 ft 254 kts 290°
2026-05-09 17:41 -45.81236 -67.69252 8777 ft 283 kts 306°
2026-05-09 17:41 -45.79598 -67.71007 9590 ft 307 kts 325°
2026-05-09 17:42 -45.77513 -67.71992 10399 ft 323 kts 341°
2026-05-09 17:42 -45.75297 -67.72639 11220 ft 327 kts 343°
2026-05-09 17:42 -45.73023 -67.73110 11962 ft 339 kts 354°
2026-05-09 17:42 -45.70661 -67.72569 12705 ft 348 kts 12°
2026-05-09 17:43 -45.68493 -67.70973 13382 ft 355 kts 37°
2026-05-09 17:43 -45.66554 -67.68845 14223 ft 357 kts 39°
2026-05-09 17:43 -45.64602 -67.66625 15021 ft 359 kts 40°
2026-05-09 17:43 -45.62641 -67.64397 15821 ft 362 kts 39°
2026-05-09 17:44 -45.60651 -67.62173 16626 ft 365 kts 39°
2026-05-09 17:44 -45.58643 -67.59934 17430 ft 368 kts 39°
2026-05-09 17:44 -45.56622 -67.57666 18266 ft 371 kts 39°
2026-05-09 17:44 -45.54592 -67.55388 19021 ft 371 kts 39°
2026-05-09 17:45 -45.52562 -67.53119 19767 ft 370 kts 39°
2026-05-09 17:45 -45.50565 -67.50891 20510 ft 369 kts 39°
2026-05-09 17:45 -45.48544 -67.48637 21278 ft 368 kts 39°
2026-05-09 17:45 -45.46532 -67.46391 22058 ft 367 kts 38°
2026-05-09 17:46 -45.44527 -67.44156 22866 ft 365 kts 38°
2026-05-09 17:46 -45.42534 -67.41939 23703 ft 362 kts 38°
2026-05-09 17:46 -45.40559 -67.39744 24426 ft 358 kts 38°
2026-05-09 17:46 -45.38592 -67.37559 25022 ft 359 kts 38°
2026-05-09 17:47 -45.36618 -67.35367 25614 ft 360 kts 38°
2026-05-09 17:47 -45.34640 -67.33172 26217 ft 361 kts 38°
2026-05-09 17:47 -45.32688 -67.31010 26828 ft 360 kts 38°
2026-05-09 17:47 -45.30710 -67.28821 27472 ft 360 kts 38°
2026-05-09 17:48 -45.28733 -67.26635 28088 ft 361 kts 39°
2026-05-09 17:48 -45.26733 -67.24424 28654 ft 367 kts 39°
2026-05-09 17:48 -45.24701 -67.22180 29241 ft 372 kts 39°
2026-05-09 17:48 -45.22638 -67.19905 29703 ft 380 kts 39°
2026-05-09 17:49 -45.20527 -67.17581 30123 ft 388 kts 39°
2026-05-09 17:49 -45.18372 -67.15209 30513 ft 396 kts 39°
2026-05-09 17:49 -45.16177 -67.12794 30887 ft 403 kts 39°
2026-05-09 17:49 -45.13971 -67.10370 31255 ft 410 kts 39°
2026-05-09 17:50 -45.12438 -67.08689 31502 ft 415 kts 39°
2026-05-09 17:50 -45.07022 -67.02755 32338 ft 432 kts 39°
2026-05-09 17:50 -45.05438 -67.01021 32583 ft 436 kts 39°
2026-05-09 17:51 -45.02195 -66.97477 33070 ft 445 kts 39°
2026-05-09 17:51 -44.99724 -66.94780 33462 ft 452 kts 39°
2026-05-09 17:51 -44.97222 -66.92053 33841 ft 458 kts 39°
2026-05-09 17:51 -44.94720 -66.89328 34216 ft 463 kts 39°
2026-05-09 17:52 -44.92118 -66.86497 34557 ft 469 kts 39°
2026-05-09 17:52 -44.89553 -66.83711 34897 ft 474 kts 39°
2026-05-09 17:52 -44.86930 -66.80864 35251 ft 478 kts 39°
2026-05-09 17:52 -44.84280 -66.77992 35604 ft 483 kts 38°
2026-05-09 17:53 -44.81602 -66.75093 35963 ft 487 kts 38°
2026-05-09 17:53 -44.78903 -66.72174 36319 ft 491 kts 38°
2026-05-09 17:53 -44.76180 -66.69234 36670 ft 496 kts 38°
2026-05-09 17:53 -44.73433 -66.66271 37028 ft 499 kts 38°
2026-05-09 17:54 -44.70666 -66.63289 37407 ft 503 kts 38°
2026-05-09 17:54 -44.67919 -66.60333 37784 ft 505 kts 38°
2026-05-09 17:54 -44.65119 -66.57325 38168 ft 508 kts 38°
2026-05-09 17:54 -44.62304 -66.54303 38560 ft 511 kts 38°
2026-05-09 17:55 -44.59476 -66.51271 38937 ft 513 kts 38°
2026-05-09 17:55 -44.56637 -66.48236 39227 ft 516 kts 37°
2026-05-09 17:55 -44.53747 -66.45151 39214 ft 527 kts 37°
2026-05-09 17:55 -44.50803 -66.42006 39221 ft 538 kts 37°
2026-05-09 17:56 -44.44774 -66.35577 39240 ft 551 kts 37°
2026-05-09 17:57 -44.35516 -66.25745 39235 ft 568 kts 37°
2026-05-09 17:57 -44.29166 -66.19024 39233 ft 578 kts 37°
2026-05-09 17:58 -44.22710 -66.12208 39232 ft 586 kts 37°
2026-05-09 17:58 -44.16173 -66.05327 39235 ft 591 kts 37°
2026-05-09 17:59 -44.09643 -65.98474 39231 ft 592 kts 37°
2026-05-09 17:59 -44.03066 -65.91591 39232 ft 592 kts 37°
2026-05-09 18:00 -43.96262 -65.85165 39232 ft 592 kts 30°
2026-05-09 18:00 -43.89083 -65.79562 39233 ft 592 kts 29°
2026-05-09 18:01 -43.82047 -65.73769 39227 ft 592 kts 30°
2026-05-09 18:01 -43.74893 -65.68106 39235 ft 592 kts 29°
2026-05-09 18:02 -43.67771 -65.62362 39228 ft 592 kts 30°
2026-05-09 18:02 -43.60632 -65.56683 39229 ft 592 kts 29°
2026-05-09 18:03 -43.53494 -65.50996 39220 ft 593 kts 30°
2026-05-09 18:03 -43.46396 -65.45356 39224 ft 593 kts 30°
2026-05-09 18:04 -43.39246 -65.39705 39236 ft 593 kts 30°
2026-05-09 18:04 -43.32104 -65.34055 39251 ft 592 kts 30°
2026-05-09 18:05 -43.24955 -65.28437 39244 ft 592 kts 30°
2026-05-09 18:05 -43.17859 -65.22862 39233 ft 592 kts 30°
2026-05-09 18:06 -43.10660 -65.17370 39234 ft 592 kts 29°
2026-05-09 18:06 -43.03484 -65.11831 39234 ft 592 kts 30°
2026-05-09 18:07 -42.96292 -65.06341 39236 ft 592 kts 30°
2026-05-09 18:07 -42.89158 -65.00887 39225 ft 592 kts 30°
2026-05-09 18:08 -42.81969 -64.95414 39224 ft 592 kts 30°
2026-05-09 18:08 -42.74770 -64.89949 39224 ft 592 kts 30°
2026-05-09 18:09 -42.67574 -64.84495 39219 ft 592 kts 30°
2026-05-09 18:09 -42.60367 -64.79056 39221 ft 592 kts 30°
2026-05-09 18:10 -42.53213 -64.73662 39223 ft 592 kts 30°
2026-05-09 18:10 -42.46003 -64.68248 39222 ft 593 kts 30°
2026-05-09 18:11 -42.38744 -64.62965 39226 ft 593 kts 27°
2026-05-09 18:11 -42.31347 -64.58032 39235 ft 592 kts 27°
2026-05-09 18:12 -42.24025 -64.53079 39213 ft 593 kts 28°
2026-05-09 18:12 -42.16633 -64.48145 39225 ft 593 kts 27°
2026-05-09 18:13 -42.09249 -64.43199 39218 ft 592 kts 28°
2026-05-09 18:13 -42.01862 -64.38279 39221 ft 592 kts 27°
2026-05-09 18:14 -41.94479 -64.33370 39219 ft 592 kts 28°
2026-05-09 18:14 -41.87147 -64.28505 39221 ft 592 kts 28°
2026-05-09 18:15 -41.79764 -64.23624 39221 ft 592 kts 28°
2026-05-09 18:15 -41.72376 -64.18746 39223 ft 592 kts 28°
2026-05-09 18:16 -41.64988 -64.13888 39225 ft 592 kts 28°
2026-05-09 18:16 -41.57649 -64.09068 39223 ft 592 kts 28°
2026-05-09 18:17 -41.50255 -64.04229 39225 ft 592 kts 28°
2026-05-09 18:17 -41.42860 -63.99399 39227 ft 592 kts 28°
2026-05-09 18:18 -41.35461 -63.94580 39229 ft 592 kts 28°
2026-05-09 18:18 -41.28107 -63.89802 39224 ft 592 kts 28°
2026-05-09 18:19 -41.20709 -63.85008 39230 ft 592 kts 28°
2026-05-09 18:19 -41.09607 -63.77835 39224 ft 592 kts 28°
2026-05-09 18:20 -41.02203 -63.73067 39225 ft 592 kts 28°
2026-05-09 18:20 -40.94849 -63.68343 39226 ft 591 kts 28°
2026-05-09 18:21 -40.87535 -63.63401 39213 ft 589 kts 32°
2026-05-09 18:21 -40.80375 -63.58154 39213 ft 589 kts 32°
2026-05-09 18:22 -40.73163 -63.53018 39221 ft 589 kts 32°
2026-05-09 18:22 -40.66032 -63.47859 39221 ft 588 kts 32°
2026-05-09 18:23 -40.58836 -63.42727 39225 ft 588 kts 32°
2026-05-09 18:23 -40.51650 -63.37579 39221 ft 588 kts 32°
2026-05-09 18:24 -40.44460 -63.32458 39220 ft 588 kts 32°
2026-05-09 18:25 -40.33731 -63.24826 39220 ft 587 kts 32°
2026-05-09 18:25 -40.26545 -63.19742 39219 ft 587 kts 32°
2026-05-09 18:26 -40.20584 -63.15524 39223 ft 586 kts 32°
2026-05-09 18:26 -40.12246 -63.09645 39219 ft 585 kts 32°
2026-05-09 18:27 -40.05075 -63.04599 39206 ft 585 kts 33°
2026-05-09 18:27 -39.97907 -62.99570 39206 ft 585 kts 33°
2026-05-09 18:28 -39.90738 -62.94550 39203 ft 584 kts 33°
2026-05-09 18:28 -39.84782 -62.90390 39201 ft 584 kts 33°
2026-05-09 18:29 -39.76461 -62.84592 39206 ft 583 kts 33°
2026-05-09 18:29 -39.70471 -62.80426 39205 ft 583 kts 33°
2026-05-09 18:30 -39.63369 -62.75500 39204 ft 582 kts 33°
2026-05-09 18:30 -39.56225 -62.70555 39203 ft 582 kts 33°
2026-05-09 18:31 -39.47896 -62.64913 39204 ft 581 kts 31°
2026-05-09 18:31 -39.41856 -62.60954 39201 ft 580 kts 32°
2026-05-09 18:32 -39.34704 -62.56280 39206 ft 580 kts 31°
2026-05-09 18:32 -39.27503 -62.51607 39205 ft 578 kts 31°
2026-05-09 18:33 -39.20324 -62.46934 39208 ft 577 kts 31°
2026-05-09 18:33 -39.13152 -62.42300 39205 ft 576 kts 31°
2026-05-09 18:34 -39.06049 -62.37701 39205 ft 575 kts 31°
2026-05-09 18:34 -38.98901 -62.33100 39203 ft 574 kts 31°
2026-05-09 18:35 -38.91777 -62.28512 39194 ft 572 kts 31°
2026-05-09 18:35 -38.84665 -62.23950 39188 ft 571 kts 30°
2026-05-09 18:36 -38.77616 -62.19434 39184 ft 569 kts 30°
2026-05-09 18:36 -38.70652 -62.14693 39151 ft 562 kts 38°
2026-05-09 18:37 -38.64366 -62.08873 39188 ft 556 kts 42°
2026-05-09 18:37 -38.58039 -62.03169 39193 ft 557 kts 39°
2026-05-09 18:38 -38.51770 -61.97505 39184 ft 554 kts 40°
2026-05-09 18:38 -38.45490 -61.91801 39191 ft 554 kts 39°
2026-05-09 18:40 -38.20477 -61.69341 39186 ft 548 kts 39°
2026-05-09 18:41 -38.14235 -61.63782 39181 ft 548 kts 39°
2026-05-09 18:41 -38.08012 -61.58221 39180 ft 546 kts 39°
2026-05-09 18:42 -38.01792 -61.52695 39180 ft 545 kts 38°
2026-05-09 18:42 -37.95626 -61.47216 39179 ft 545 kts 38°
2026-05-09 18:43 -37.89415 -61.41720 39178 ft 544 kts 38°
2026-05-09 18:43 -37.83210 -61.36236 39173 ft 544 kts 38°
2026-05-09 18:44 -37.77008 -61.30767 39170 ft 543 kts 38°
2026-05-09 18:44 -37.70806 -61.25311 39173 ft 543 kts 38°
2026-05-09 18:45 -37.64644 -61.19899 39170 ft 543 kts 38°
2026-05-09 18:45 -37.58445 -61.14467 39176 ft 543 kts 38°
2026-05-09 18:46 -37.52244 -61.09044 39165 ft 542 kts 38°
2026-05-09 18:46 -37.46043 -61.03632 39164 ft 542 kts 38°
2026-05-09 18:47 -37.39883 -60.98268 39169 ft 542 kts 37°
2026-05-09 18:47 -37.33688 -60.92884 39169 ft 541 kts 37°
2026-05-09 18:48 -37.27491 -60.87508 39166 ft 541 kts 37°
2026-05-09 18:48 -37.21296 -60.82146 39157 ft 541 kts 37°
2026-05-09 18:49 -37.15142 -60.76830 38958 ft 540 kts 37°
2026-05-09 18:49 -37.12052 -60.74165 38734 ft 538 kts 38°
2026-05-09 18:49 -37.08970 -60.71508 38471 ft 537 kts 38°
2026-05-09 18:49 -37.05893 -60.68860 38225 ft 536 kts 38°
2026-05-09 18:50 -37.02822 -60.66220 37986 ft 535 kts 38°
2026-05-09 18:50 -36.99755 -60.63584 37743 ft 535 kts 38°
2026-05-09 18:50 -36.96690 -60.60953 37507 ft 534 kts 38°
2026-05-09 18:50 -36.93627 -60.58326 37268 ft 534 kts 38°
2026-05-09 18:51 -36.90603 -60.55737 37049 ft 534 kts 38°
2026-05-09 18:51 -36.87544 -60.53120 36825 ft 533 kts 38°
2026-05-09 18:51 -36.84484 -60.50504 36598 ft 533 kts 38°
2026-05-09 18:51 -36.81423 -60.47890 36380 ft 533 kts 38°
2026-05-09 18:52 -36.78374 -60.45290 36131 ft 528 kts 39°
2026-05-09 18:52 -36.75350 -60.42716 35780 ft 524 kts 39°
2026-05-09 18:52 -36.72353 -60.40163 35434 ft 520 kts 39°
2026-05-09 18:52 -36.69383 -60.37635 35089 ft 515 kts 39°
2026-05-09 18:53 -36.66433 -60.35128 34757 ft 511 kts 40°
2026-05-09 18:53 -36.63508 -60.32646 34429 ft 507 kts 40°
2026-05-09 18:53 -36.60646 -60.30219 34098 ft 502 kts 40°
2026-05-09 18:53 -36.57776 -60.27786 33717 ft 497 kts 40°
2026-05-09 18:54 -36.54930 -60.25376 33341 ft 493 kts 40°
2026-05-09 18:54 -36.52110 -60.22990 32966 ft 488 kts 40°
2026-05-09 18:54 -36.49312 -60.20629 32597 ft 484 kts 40°
2026-05-09 18:54 -36.46531 -60.18298 32232 ft 480 kts 40°
2026-05-09 18:55 -36.43771 -60.15991 31873 ft 476 kts 40°
2026-05-09 18:55 -36.41037 -60.13698 31424 ft 474 kts 40°
2026-05-09 18:55 -36.38302 -60.11399 30831 ft 476 kts 40°
2026-05-09 18:55 -36.35592 -60.09130 30272 ft 477 kts 39°
2026-05-09 18:56 -36.32836 -60.06833 29617 ft 477 kts 39°
2026-05-09 18:56 -36.30085 -60.04537 28967 ft 476 kts 38°
2026-05-09 18:56 -36.27342 -60.02245 28333 ft 475 kts 38°
2026-05-09 18:56 -36.24609 -59.99966 27713 ft 473 kts 37°
2026-05-09 18:57 -36.21884 -59.97697 27097 ft 471 kts 37°
2026-05-09 18:57 -36.19174 -59.95443 26496 ft 468 kts 36°
2026-05-09 18:57 -36.16494 -59.93214 25901 ft 461 kts 36°
2026-05-09 18:57 -36.13854 -59.91020 25320 ft 454 kts 35°
2026-05-09 18:58 -36.11281 -59.88883 24745 ft 448 kts 34°
2026-05-09 18:58 -36.08706 -59.86746 24192 ft 443 kts 34°
2026-05-09 18:58 -36.06157 -59.84633 23638 ft 439 kts 34°
2026-05-09 18:58 -36.03631 -59.82542 22974 ft 435 kts 34°
2026-05-09 18:59 -36.01128 -59.80471 22338 ft 431 kts 34°
2026-05-09 18:59 -35.98642 -59.78415 21712 ft 428 kts 34°
2026-05-09 18:59 -35.96178 -59.76378 21102 ft 425 kts 34°
2026-05-09 18:59 -35.93726 -59.74354 20494 ft 423 kts 34°
2026-05-09 19:00 -35.91283 -59.72339 19875 ft 422 kts 35°
2026-05-09 19:00 -35.86456 -59.68359 18701 ft 419 kts 35°
2026-05-09 19:00 -35.84034 -59.66367 18077 ft 418 kts 36°
2026-05-09 19:01 -35.81622 -59.64382 17416 ft 416 kts 35°
2026-05-09 19:01 -35.79225 -59.62411 16770 ft 413 kts 35°
2026-05-09 19:01 -35.76843 -59.60455 16141 ft 410 kts 35°
2026-05-09 19:01 -35.74476 -59.58513 15515 ft 407 kts 35°
2026-05-09 19:02 -35.72131 -59.56589 14906 ft 404 kts 35°
2026-05-09 19:02 -35.69804 -59.54681 14307 ft 400 kts 34°
2026-05-09 19:02 -35.67495 -59.52790 13691 ft 397 kts 34°
2026-05-09 19:02 -35.65204 -59.50915 13024 ft 394 kts 34°
2026-05-09 19:03 -35.62966 -59.49085 12385 ft 390 kts 34°
2026-05-09 19:03 -35.60713 -59.47251 11752 ft 386 kts 34°
2026-05-09 19:03 -35.58465 -59.45469 11132 ft 383 kts 33°
2026-05-09 19:03 -35.56226 -59.43729 10521 ft 379 kts 33°
2026-05-09 19:04 -35.54009 -59.42022 10109 ft 369 kts 33°
2026-05-09 19:04 -35.51899 -59.40406 10103 ft 347 kts 33°
2026-05-09 19:04 -35.49902 -59.38882 10104 ft 329 kts 33°
2026-05-09 19:04 -35.48001 -59.37434 10097 ft 314 kts 33°
2026-05-09 19:05 -35.46184 -59.36050 10101 ft 302 kts 33°
2026-05-09 19:05 -35.44433 -59.34714 10101 ft 291 kts 33°
2026-05-09 19:05 -35.42762 -59.33438 10101 ft 282 kts 33°
2026-05-09 19:05 -35.41121 -59.32184 10098 ft 274 kts 33°
2026-05-09 19:06 -35.39525 -59.30963 10097 ft 267 kts 33°
2026-05-09 19:06 -35.37966 -59.29769 10101 ft 261 kts 33°
2026-05-09 19:06 -35.36437 -59.28597 10099 ft 257 kts 33°
2026-05-09 19:06 -35.34933 -59.27441 10100 ft 254 kts 33°
2026-05-09 19:07 -35.33443 -59.26296 10101 ft 254 kts 33°
2026-05-09 19:07 -35.31921 -59.25122 10109 ft 263 kts 33°
2026-05-09 19:07 -35.30343 -59.23902 10122 ft 273 kts 33°
2026-05-09 19:07 -35.28734 -59.22656 10119 ft 282 kts 33°
2026-05-09 19:08 -35.27053 -59.21353 10120 ft 290 kts 33°
2026-05-09 19:08 -35.25331 -59.20016 10119 ft 297 kts 33°
2026-05-09 19:08 -35.23570 -59.18648 10120 ft 303 kts 33°
2026-05-09 19:08 -35.21776 -59.17252 10121 ft 308 kts 33°
2026-05-09 19:09 -35.19955 -59.15834 10121 ft 313 kts 32°
2026-05-09 19:09 -35.18110 -59.14395 10122 ft 317 kts 32°
2026-05-09 19:09 -35.16244 -59.12939 10119 ft 320 kts 32°
2026-05-09 19:09 -35.14360 -59.11467 10116 ft 322 kts 32°
2026-05-09 19:10 -35.12460 -59.09977 9879 ft 325 kts 32°
2026-05-09 19:10 -35.10557 -59.08482 9571 ft 325 kts 32°
2026-05-09 19:10 -35.08673 -59.07004 9176 ft 329 kts 32°
2026-05-09 19:10 -35.06738 -59.05488 8762 ft 332 kts 32°
2026-05-09 19:11 -35.04785 -59.03965 8345 ft 334 kts 32°
2026-05-09 19:11 -35.02795 -59.02483 7937 ft 335 kts 31°
2026-05-09 19:11 -35.01492 -59.01535 7730 ft 316 kts 30°
2026-05-09 19:11 -35.00796 -59.01031 7632 ft 312 kts 30°
2026-05-09 19:12 -34.99204 -58.99879 7417 ft 302 kts 30°
2026-05-09 19:12 -34.97420 -58.98592 7166 ft 294 kts 30°
2026-05-09 19:12 -34.95699 -58.97367 6912 ft 287 kts 28°
2026-05-09 19:12 -34.93884 -58.96336 6647 ft 282 kts 22°
2026-05-09 19:13 -34.92088 -58.95429 6375 ft 277 kts 21°
2026-05-09 19:13 -34.90309 -58.94564 6099 ft 272 kts 20°
2026-05-09 19:13 -34.88585 -58.93742 5830 ft 267 kts 20°
2026-05-09 19:13 -34.86870 -58.92922 5553 ft 263 kts 20°
2026-05-09 19:14 -34.85180 -58.92107 5292 ft 260 kts 20°
2026-05-09 19:14 -34.83669 -58.91372 5050 ft 257 kts 20°
2026-05-09 19:14 -34.82019 -58.90567 4778 ft 254 kts 20°
2026-05-09 19:14 -34.80384 -58.89770 4505 ft 252 kts 20°
2026-05-09 19:15 -34.78765 -58.88977 4258 ft 250 kts 20°
2026-05-09 19:15 -34.77164 -58.88185 3987 ft 247 kts 20°
2026-05-09 19:15 -34.75607 -58.87406 3723 ft 243 kts 20°
2026-05-09 19:15 -34.74036 -58.86610 3459 ft 240 kts 20°
2026-05-09 19:16 -34.72504 -58.85830 3183 ft 237 kts 20°
2026-05-09 19:16 -34.71016 -58.85063 3096 ft 225 kts 20°
2026-05-09 19:16 -34.69626 -58.84335 3094 ft 210 kts 20°
2026-05-09 19:16 -34.68327 -58.83658 3094 ft 197 kts 20°
2026-05-09 19:17 -34.67103 -58.83063 3089 ft 186 kts 15°
2026-05-09 19:17 -34.66647 -58.82878 3089 ft 183 kts 14°
2026-05-09 19:18 -34.63749 -58.81784 3123 ft 202 kts 10°
2026-05-09 19:18 -34.62338 -58.81334 3125 ft 217 kts 11°